Flag for Czech Republic Weather past 2 weeks in Plzen, Czech Republic

Now
67 °F

Overcast.


Feels Like: 67 °F
Forecast: 57 / 68 °F
Wind: 3 mph from Northwest

Location: Kocelovice

Current Time: Sep 30, 2014 at 3:58:18 PM

Latest Report: Sep 30, 2014 at 3:00 PM


Visibility: 16 mi

Pressure: 30.25 "Hg

Humidity: 71%

Dew point: 57 °F

Location of PlzenLocation

Historic Weather in Plzen — Graph

°F

Plzen temperature yesterday

Maximum temperature yesterday: 67 °F (at 4:00 PM)
Minimum temperature yesterday: 41 °F (at 6:00 AM)
Average temperature yesterday: 53 °F

Past Weeks' High & Low Weather Summary

 TemperatureHumidityPressure
High72 °F (Sep 20, 1:00 PM)100% (Sep 21, 7:00 AM)30.43 "Hg (Sep 21, 7:00 AM)
Low32 °F (Sep 24, 7:00 AM)53% (Sep 24, 3:00 PM)29.84 "Hg (Sep 21, 6:00 PM)
Average55 °F86%30.10 "Hg
* Reported Sep 15 2:00 PM — Sep 30 2:00 PM, Plzen, Weather by CustomWeather, © 2014

Note: Actual official high and low records may vary slightly from our data, if they occured in-between our weather recording intervals... More about our weather records

Advertising

Plzen weather history for previous 24 hours

 ConditionsComfort  
Time TempWeatherWind HumidityBarometerVisibility
2:00 PM
Sep 30
69 °FOvercast.5 mph62%30.24 "Hg17 mi
1:00 PM67 °FOvercast.3 mph65%30.25 "Hg28 mi
12:00 PM64 °FOvercast.N/A74%30.26 "Hg28 mi
11:00 AM61 °FOvercast.N/A80%30.28 "Hg25 mi
10:00 AM54 °FFog.N/A95%30.30 "Hg3 mi
9:00 AM49 °FFog.1 mph99%30.32 "Hg2 mi
8:00 AM47 °FFog.N/A100%30.31 "Hg1 mi
7:00 AM47 °FDuststorm.N/A99%30.32 "Hg0 mi
6:00 AM46 °FDuststorm.1 mph99%30.32 "Hg0 mi
5:00 AM47 °FDuststorm.No wind99%30.31 "Hg0 mi
4:00 AM47 °FDuststorm.1 mph99%30.31 "Hg0 mi
3:00 AM47 °FDuststorm.No wind99%30.30 "Hg0 mi
2:00 AM49 °FDuststorm.1 mph100%30.31 "Hg0 mi
1:00 AM51 °FDuststorm.1 mph100%30.30 "Hg0 mi
12:00 AM51 °FDuststorm.1 mph99%30.31 "Hg1 mi
11:00 PM
Sep 29
53 °FDuststorm.N/A99%30.29 "Hg1 mi
10:00 PM54 °FFog.2 mph99%30.29 "Hg0 mi
9:00 PM56 °FFog.2 mph95%30.29 "Hg2 mi
8:00 PM59 °FPassing clouds.2 mph88%30.27 "Hg19 mi
7:00 PM62 °FPassing clouds.2 mph81%30.25 "Hg25 mi
6:00 PM64 °FPartly sunny.3 mph73%30.24 "Hg34 mi
5:00 PM67 °FScattered clouds.2 mph65%30.23 "Hg34 mi
4:00 PM67 °FScattered clouds.2 mph65%30.24 "Hg31 mi
3:00 PM67 °FScattered clouds.N/A65%30.25 "Hg28 mi
Weather by CustomWeather, © 2014

See weather overviewHow to use our weather pages